Regional Weather Roundup
Issued by NWS

Home | Current Version | Previous Version | Text Only | Print | Product List | Glossary Off
Versions: 1 2 3 4 5 6 7 8 9 10 11 12 13 14 15 16 17 18 19 20 21 22 23 24 25 26 27 28 29 30 31 32 33 34 35 36 37 38 39 40 41 42 43 44 45 46 47 48 49 50

000
ASUS44 KMEG 300710
RWRTN
TENNESSEE HOURLY STATE WEATHER ROUNDUP
NATIONAL WEATHER SERVICE MEMPHIS TN
100 AM CST FRI JAN 30 2015

TNZ002-004-019-021-049-052-054-088>092-300800-
WEST TENNESSEE

CITY           SKY/WX    TMP DP  RH WIND       PRES   REMARKS
MEMPHIS INTL   MOCLDY    42  28  57 N8        30.42R
NWS MEMPHIS      N/A     42 N/A N/A MISG        N/A
JACKSON        CLOUDY    42  29  59 NW7       30.39S
DYERSBURG      CLOUDY    41  21  45 N10       30.42F
UNION CITY     CLOUDY    37  28  70 N12       30.39S WCI  30
PARIS          CLOUDY    36  28  75 N9        30.38R WCI  29
LEXINGTON      CLOUDY    39  27  60 NW12      30.35S WCI  32
SAVANNAH       CLOUDY    41  28  60 N7        30.37S
$$

TNZ008-025-027-028-033-062-065-066-300800-
NORTH MIDDLE TENNESSEE

CITY           SKY/WX    TMP DP  RH WIND       PRES   REMARKS
NASHVILLE      CLOUDY    40  30  67 NW13G18   30.34S WCI  32
CLARKSVILLE    CLOUDY    37  29  72 N10       30.37R WCI  30
SMYRNA         CLOUDY    38  33  82 N9        30.35S WCI  31
COOKEVILLE     MOCLDY    37  30  75 NW7       30.27S WCI  32
CROSSVILLE     CLOUDY    35  25  66 N21G31    30.23R WCI  24
$$

TNZ061-075-076-078-094-096-097-300800-
SOUTH MIDDLE TENNESSEE

CITY           SKY/WX    TMP DP  RH WIND       PRES   REMARKS
FAYETTEVILLE   CLOUDY    37  28  70 MISG      30.30R
TULLAHOMA      CLOUDY    36  30  80 N8        30.29S WCI  29
WINCHESTER     CLOUDY    37  30  75 N14       30.29S WCI  29
MCMINNVILLE    CLOUDY    37  30  75 VRB6      30.28S WCI  33
COLUMBIA       CLOUDY    39  32  75 N7        30.32S WCI  34
SHELBYVILLE    CLOUDY    39  30  70 N10       30.33R WCI  32
$$

TNZ017-018-042-046-047-300800-
NORTHEAST TENNESSEE

CITY           SKY/WX    TMP DP  RH WIND       PRES   REMARKS
TRI CITIES     CLOUDY    38  30  73 W13G22    30.13R WCI  30
ELIZABETHTON   CLOUDY    36  30  80 W12       30.10R WCI  27
$$

TNZ012-013-036-069-073-074-300800-
CENTRAL EAST TENNESSEE

CITY           SKY/WX    TMP DP  RH WIND       PRES   REMARKS
KNOXVILLE      CLOUDY    40  29  64 NW12      30.22R WCI  33
OAK RIDGE      CLOUDY    40  27  59 N8        30.24R WCI  34
GATLINBURG     CLOUDY    37  30  75 W5        30.20S WCI  34
MORRISTOWN     CLOUDY    37  30  75 NW10      30.18R WCI  30
$$

TNZ083-085-099-300800-
SOUTHEAST TENNESSEE

CITY           SKY/WX    TMP DP  RH WIND       PRES   REMARKS
CHATTANOOGA    CLOUDY    42  30  62 N14       30.27R
$$

SKY/WX REPORTED AS FAIR MEANS FEW OR NO CLOUDS BELOW
12 THOUSAND FEET.




USA.gov is the U.S. government's official web portal to all federal, state and local government web resources and services.